GW0143 Weather Reports


time (UTC)temp
F
wind
direction
speed
knots
gust
knots
rain 1hr
in
rain 24hr
in
rain mn
in
humidity
%
barometer
mb
20260905014521 61 201 8.7 13.0 0.03 0.03 0.03 66 1026.0
20260905013518 63 225 8.7 12.2 0.03 0.03 0.03 61 1026.0
20260905012538 65 232 7.8 13.0 0.01 0.01 0.01 58 1026.0
20260905011518 70 219 8.7 12.2 0.01 0.01 0.01 49 1025.8
20260905010518 72 190 9.6 13.0 0.00 0.00 0.00 44 1025.4
20260905005522 72 175 8.7 12.2 0.00 0.00 0.00 42 1025.2
20260905004520 73 167 7.0 10.4 0.00 0.00 0.00 39 1025.1
20260905003519 74 168 7.0 9.6 0.00 0.00 0.00 37 1025.0
20260905002522 76 157 7.0 7.8 0.00 0.00 0.00 35 1024.9
20260905001523 76 183 6.1 7.8 0.00 0.00 0.00 35 1025.0
20260905000543 76 128 2.6 4.3 0.00 0.00 0.00 34 1025.0
20260904235520 76 283 2.6 4.3 0.00 0.00 0.00 31 1024.9
20260904234517 75 269 2.6 4.3 0.00 0.00 0.00 31 1024.9
20260904233523 76 264 2.6 6.1 0.00 0.00 0.00 31 1024.8
20260904232523 76 246 2.6 5.2 0.00 0.00 0.00 30 1024.9
20260904231520 77 266 0.9 2.6 0.00 0.00 0.00 29 1024.9
20260904230521 77 271 1.7 3.5 0.00 0.00 0.00 30 1024.9
20260904225518 77 264 5.2 8.7 0.00 0.00 0.00 30 1024.9
20260904224521 78 209 2.6 4.3 0.00 0.00 0.00 28 1024.9
20260904223518 78 213 3.5 5.2 0.00 0.00 0.00 28 1025.0
20260904222544 76 280 3.5 7.8 0.00 0.00 0.00 30 1025.0
20260904221519 76 299 3.5 5.2 0.00 0.00 0.00 30 1025.1
20260904220519 76 285 4.3 7.8 0.00 0.00 0.00 30 1025.2
20260904215519 77 305 3.5 7.0 0.00 0.00 0.00 30 1025.3
20260904214519 77 294 5.2 9.6 0.00 0.00 0.00 30 1025.4
20260904213519 78 310 4.3 8.7 0.00 0.00 0.00 29 1025.3
20260904212520 80 286 8.7 13.9 0.00 0.00 0.00 27 1025.3
20260904211519 79 304 7.8 13.0 0.00 0.00 0.00 28 1025.3
20260904210520 78 305 4.3 9.6 0.00 0.00 0.00 27 1025.4
20260904205520 78 303 4.3 7.0 0.00 0.00 0.00 27 1025.4
20260904204520 77 274 4.3 8.7 0.00 0.00 0.00 27 1025.6
20260904203521 76 308 4.3 7.0 0.00 0.00 0.00 28 1025.7
20260904202517 76 287 4.3 8.7 0.00 0.00 0.00 28 1025.7
20260904201521 76 275 5.2 8.7 0.00 0.00 0.00 29 1025.8
20260904200521 76 291 5.2 8.7 0.00 0.00 0.00 28 1026.0
20260904195521 76 266 5.2 7.8 0.00 0.00 0.00 28 1026.0
20260904194521 77 251 4.3 7.8 0.00 0.00 0.00 27 1026.0
20260904193521 76 228 4.3 7.0 0.00 0.00 0.00 28 1026.1
20260904192519 76 256 5.2 8.7 0.00 0.00 0.00 29 1026.1
20260904191519 78 262 7.8 11.3 0.00 0.00 0.00 27 1026.2
20260904190519 77 235 6.1 13.0 0.00 0.00 0.00 28 1026.3
20260904185519 77 194 5.2 10.4 0.00 0.00 0.00 30 1026.5
20260904184519 78 245 6.1 13.0 0.00 0.00 0.00 28 1026.5
20260904183519 77 251 6.1 13.9 0.00 0.00 0.00 29 1026.5
20260904182517 76 170 3.5 7.0 0.00 0.00 0.00 31 1026.7
20260904181520 77 230 5.2 12.2 0.00 0.00 0.00 31 1026.7
20260904180520 76 238 6.1 13.0 0.00 0.00 0.00 31 1026.8
20260904175520 76 264 3.5 9.6 0.00 0.00 0.00 31 1026.9
20260904174523 75 311 4.3 7.8 0.00 0.00 0.00 32 1027.0
20260904173517 73 277 3.5 7.0 0.00 0.00 0.00 34 1026.9
20260904172518 73 275 5.2 8.7 0.00 0.00 0.00 34 1027.0
20260904171521 75 303 5.2 9.6 0.00 0.00 0.00 34 1026.9
20260904170518 75 268 6.1 13.0 0.00 0.00 0.00 33 1026.8
20260904165518 73 252 5.2 8.7 0.00 0.00 0.00 35 1026.8
20260904164518 73 254 2.6 7.8 0.00 0.00 0.00 36 1026.8
20260904163518 73 150 4.3 8.7 0.00 0.00 0.00 37 1026.8
20260904162519 72 191 7.8 11.3 0.00 0.00 0.00 37 1026.8
20260904161539 72 188 7.0 11.3 0.00 0.00 0.00 38 1026.7
20260904160519 71 172 4.3 9.6 0.00 0.00 0.00 38 1026.7
20260904155539 71 202 7.0 10.4 0.00 0.00 0.00 39 1026.8
20260904154519 70 195 5.2 7.8 0.00 0.00 0.00 40 1026.7
20260904153519 70 168 5.2 8.7 0.00 0.00 0.00 40 1026.7
20260904152520 69 170 7.8 9.6 0.00 0.00 0.00 42 1026.7
20260904151520 69 182 7.8 11.3 0.00 0.00 0.00 43 1026.6
20260904150520 68 180 7.8 10.4 0.00 0.00 0.00 44 1026.6
20260904145517 67 174 7.8 9.6 0.00 0.00 0.00 46 1026.6
20260904144517 67 178 7.8 10.4 0.00 0.00 0.00 46 1026.5
20260904143520 66 176 7.8 11.3 0.00 0.00 0.00 47 1026.5
20260904142521 65 183 8.7 11.3 0.00 0.00 0.00 48 1026.4
20260904141518 64 185 7.8 10.4 0.00 0.00 0.00 50 1026.3
20260904140519 63 189 7.8 12.2 0.00 0.00 0.00 51 1026.2
20260904135518 62 156 7.0 8.7 0.00 0.00 0.00 54 1026.2
20260904134521 61 153 7.0 7.8 0.00 0.00 0.00 55 1026.0
20260904133522 59 159 7.0 8.7 0.00 0.00 0.00 56 1026.0
20260904132542 58 160 6.1 7.8 0.00 0.00 0.00 59 1025.9
20260904131522 56 180 7.0 8.7 0.00 0.00 0.00 61 1025.8
20260904130522 55 183 6.1 8.7 0.00 0.00 0.00 63 1025.8
20260904125519 55 168 7.0 8.7 0.00 0.00 0.00 64 1025.6
20260904124522 55 166 6.1 8.7 0.00 0.00 0.00 63 1025.5
20260904123522 54 175 5.2 7.0 0.00 0.00 0.00 64 1025.4
20260904122520 54 163 7.0 9.6 0.00 0.00 0.00 63 1025.3
20260904121520 54 159 7.8 8.7 0.00 0.00 0.00 63 1025.2
20260904120523 55 156 7.0 8.7 0.00 0.00 0.00 61 1025.2
20260904115518 55 162 6.1 7.8 0.00 0.00 0.00 60 1025.1
20260904114538 56 193 6.1 7.8 0.00 0.00 0.00 59 1025.0
20260904113520 57 190 7.8 11.3 0.00 0.00 0.00 58 1025.1
20260904112521 57 190 7.8 11.3 0.00 0.00 0.00 56 1025.0
20260904111518 58 194 5.2 7.8 0.00 0.00 0.00 54 1025.0
20260904110538 59 191 7.0 10.4 0.00 0.00 0.00 50 1025.0
20260904105518 59 189 7.0 9.6 0.00 0.00 0.00 52 1025.0
20260904104518 59 190 6.1 10.4 0.00 0.00 0.00 52 1024.9
20260904103517 58 178 4.3 7.0 0.00 0.00 0.00 53 1024.9
20260904102517 58 152 5.2 7.0 0.00 0.00 0.00 52 1024.7
20260904101518 59 157 4.3 7.0 0.00 0.00 0.00 52 1024.6
20260904100518 60 203 5.2 7.8 0.00 0.00 0.00 46 1024.5
20260904095518 60 199 5.2 7.8 0.00 0.00 0.00 49 1024.4
20260904094518 59 188 6.1 8.7 0.00 0.00 0.00 50 1024.3
20260904093558 60 197 5.2 7.8 0.00 0.00 0.00 48 1024.2
20260904092517 60 180 7.0 9.6 0.00 0.00 0.00 47 1024.2
20260904091519 61 174 4.3 7.0 0.00 0.00 0.00 48 1024.2
20260904090519 62 164 5.2 7.8 0.00 0.00 0.00 44 1024.1
20260904085519 62 349 2.6 6.1 0.00 0.00 0.00 44 1024.3
20260904084519 62 209 5.2 7.0 0.00 0.00 0.00 42 1024.2
20260904083519 62 192 7.0 8.7 0.00 0.00 0.00 42 1024.3
20260904082519 63 203 4.3 7.0 0.00 0.00 0.00 41 1024.4
20260904081519 63 220 7.0 8.7 0.00 0.00 0.00 40 1024.3
20260904080518 63 216 7.0 9.6 0.00 0.00 0.00 41 1024.4
20260904075516 64 224 6.1 8.7 0.00 0.00 0.00 40 1024.6
20260904074516 63 215 5.2 7.8 0.00 0.00 0.00 40 1024.8
20260904073520 63 223 5.2 7.8 0.00 0.00 0.00 39 1024.8
20260904072601 63 216 4.3 7.0 0.00 0.00 0.00 40 1024.8
20260904071521 62 208 5.2 7.8 0.00 0.00 0.00 41 1024.8
20260904070517 60 195 4.3 7.0 0.00 0.00 0.00 44 1024.8
20260904065517 61 160 3.5 6.1 0.00 0.00 0.00 42 1024.8
20260904064517 60 159 3.5 7.0 0.00 0.00 0.00 44 1024.8
20260904063517 60 170 4.3 6.1 0.00 0.00 0.00 45 1024.8
20260904062522 0 155 4.3 4.3 0.00 0.00 0.00
20260904061558 61 167 6.1 8.7 0.00 0.00 0.00 42 1024.7
20260904060518 62 152 7.0 8.7 0.00 0.00 0.00 41 1024.7
20260904055538 62 151 6.1 7.8 0.00 0.00 0.00 40 1024.7
20260904054538 63 152 6.1 9.6 0.00 0.00 0.00 38 1024.8
20260904053518 63 174 8.7 12.2 0.00 0.00 0.00 38 1024.8
20260904052516 62 157 6.1 8.7 0.00 0.00 0.00 38 1025.0
20260904051519 60 164 7.0 8.7 0.00 0.00 0.00 42 1025.0
20260904050519 61 162 2.6 6.1 0.00 0.00 0.00 41 1025.2
20260904045620 60 141 4.3 8.7 0.00 0.00 0.00 41 1025.1
20260904044524 61 110 2.6 4.3 0.00 0.00 0.00 42 1025.1
20260904043519 62 111 2.6 5.2 0.00 0.00 0.00 39 1025.1
20260904042539 62 26 2.6 4.3 0.00 0.00 0.00 38 1025.2
20260904041519 63 178 3.5 8.7 0.00 0.00 0.00 37 1025.1
20260904040520 63 218 4.3 6.1 0.00 0.00 0.00 38 1025.0
20260904035540 64 195 5.2 8.7 0.00 0.00 0.00 35 1025.0
20260904034517 64 198 7.0 10.4 0.00 0.00 0.00 40 1025.0
20260904033520 64 198 7.0 8.7 0.00 0.00 0.00 39 1024.9
20260904032517 64 185 7.0 12.2 0.00 0.00 0.00 39 1024.8
20260904031521 65 161 5.2 7.8 0.00 0.00 0.00 38 1024.8
20260904030521 64 171 6.1 7.0 0.00 0.00 0.00 37 1024.8
20260904025521 64 152 6.1 7.8 0.00 0.00 0.00 39 1024.8
20260904024521 65 151 5.2 8.7 0.00 0.00 0.00 36 1024.7
20260904023521 64 161 5.2 7.8 0.00 0.00 0.00 36 1024.7
20260904022522 63 155 5.2 7.0 0.00 0.00 0.00 38 1024.6
20260904021522 64 152 5.2 7.8 0.00 0.00 0.00 36 1024.4
20260904020516 66 167 5.2 7.0 0.00 0.00 0.00 34 1024.3
20260904015517 67 220 5.2 7.0 0.00 0.00 0.00 31 1024.2